Home > Weather > Durban > Past weeks

Flag for South Africa Past Weather in Durban, South Africa — Yesterday and Last 2 Weeks

Now
52 °F

Light rain. Mostly cloudy.


Feels Like: 49 °F
Forecast: 54 / 60 °F
Wind: 7 mph from West

Location: King Shaka International Airport

Current Time: Jul 24, 2016 at 6:56:21 AM

Latest Report: Jul 24, 2016 at 6:00 AM


Visibility: N/A

Pressure: 30.33 "Hg

Humidity: 77%

Dew Point: 45 °F

Location of DurbanLocation

Past Weather in Durban — Graph

°F

Durban Temperature Yesterday

Maximum temperature yesterday: 66 °F (at 11:00 AM)
Minimum temperature yesterday: 55 °F (at 9:00 PM)
Average temperature yesterday: 61 °F

High & Low Weather Summary for the Past Weeks

 TemperatureHumidityPressure
High81 °F (Jul 20, 10:48 AM)88% (Jul 10, 3:00 AM)30.54 "Hg (Jul 10, 3:00 AM)
Low43 °F (Jul 12, 6:00 AM)18% (Jul 20, 10:48 AM)29.92 "Hg (Jul 20, 3:00 PM)
Average61 °F68%30.23 "Hg
* Reported Jul 9 5:00 AM — Jul 24 5:00 AM, Durban, Weather by CustomWeather, © 2016

Note: Actual official high and low records may vary slightly from our data, if they occured in-between our weather recording intervals... More about our weather records

Advertising

Durban Weather History for the Previous 24 Hours

Scroll right to see more
 ConditionsComfort  
Time TempWeatherWind HumidityBarometerVisibility
5:00 AM
Sun, Jul 24
52 °FLight rain. Overcast.3 mph77%30.30 "HgN/A
4:00 AM54 °FLight rain. Passing clouds.5 mph72%30.27 "HgN/A
3:00 AM54 °FPassing clouds.9 mph77%30.27 "HgN/A
2:00 AM54 °FPassing clouds.8 mph77%30.27 "HgN/A
1:00 AM54 °FDrizzle. Mostly cloudy.9 mph77%30.27 "HgN/A
12:00 AM57 °FLight rain. Mostly cloudy.8 mph67%30.27 "HgN/A
11:00 PM
Sat, Jul 23
55 °FMostly cloudy.10 mph72%30.27 "HgN/A
10:00 PM57 °FPassing clouds.10 mph67%30.27 "HgN/A
9:00 PM55 °FLight rain. Mostly cloudy.10 mph67%30.24 "HgN/A
8:00 PM57 °FLight rain. Mostly cloudy.12 mph72%30.24 "HgN/A
7:00 PM63 °FOvercast.10 mph56%30.18 "HgN/A
6:00 PM63 °FMostly cloudy.9 mph56%30.15 "HgN/A
5:00 PM61 °FOvercast.9 mph59%30.12 "HgN/A
4:00 PM61 °FMore clouds than sun.9 mph59%30.12 "HgN/A
3:00 PM59 °FMostly cloudy.8 mph72%30.12 "HgN/A
2:00 PM59 °FLight rain. Cloudy.8 mph72%30.09 "Hg4 mi
1:00 PM59 °FLight rain. Mostly cloudy.12 mph72%30.12 "Hg5 mi
12:00 PM61 °FLight rain. More clouds than sun.13 mph72%30.12 "Hg4 mi
11:53 AM61 °FLight rain. More clouds than sun.13 mph72%30.12 "Hg3 mi
11:00 AM66 °FPartly sunny.9 mph60%30.12 "HgN/A
10:00 AM64 °FBroken clouds.10 mph60%30.12 "HgN/A
9:00 AM64 °FBroken clouds.9 mph60%30.09 "HgN/A
8:00 AM63 °FLight rain. Partly sunny.5 mph77%30.09 "HgN/A
7:00 AM61 °FPartly sunny.5 mph63%30.07 "HgN/A
6:00 AM61 °FPartly sunny.7 mph63%30.04 "HgN/A
Weather by CustomWeather, © 2016

See weather overviewHow to use our weather pages